Sun Valley, CA

2:58 PM PST on February 13, 2016 (GMT -0800)
Burbank-Glendale-Pasadena

Weather History for KBUR - January, 2013

Change the Weather History Date:

Tuesday, January 15, 2013

  Actual Average Record
Temperature  
Mean Temperature 46 °F 55 °F  
Max Temperature 58 °F 68 °F 86 °F (1999)
Min Temperature 33 °F 42 °F 31 °F (1984)
Degree Days  
Heating Degree Days 19 10  
Month to date heating degree days 214 156  
Since 1 July heating degree days 671 723  
Cooling Degree Days 0 0  
Month to date cooling degree days 0 0  
Year to date cooling degree days 0 0  
Moisture  
Dew Point 16 °F    
Average Humidity 33    
Maximum Humidity 50    
Minimum Humidity 15    
Precipitation  
Precipitation 0.00 in 0.11 in 4.55 in (1952)
Month to date precipitation 0.06 1.67  
Year to date precipitation 0.06 1.67  
Since 1 July precipitation 2.86  
Sea Level Pressure  
Sea Level Pressure 30.35 in    
Wind  
Wind Speed 2 mph (SSW)    
Max Wind Speed 10 mph    
Max Gust Speed 17 mph    
Visibility 10 miles    
Events      
T = Trace of Precipitation, MM = Missing Value Source: NWS Daily Summary

Daily Weather History Graph

Daily Weather History Graph

Search for Another Location

Airport or City:

Trip Planner

Search our weather history database for the weather conditions in past years. The results will help you decide how hot, cold, wet, or windy it might be!

Date:

Astronomy

Jan. 15, 2013 Rise Set
Actual Time 6:59 AM PST 5:07 PM PST
Civil Twilight 6:31 AM PST 5:34 PM PST
Nautical Twilight 6:01 AM PST 6:05 PM PST
Astronomical Twilight 5:30 AM PST 6:35 PM PST
Moon 9:21 AM PST (1/15) 9:46 PM PST (1/15)
Length of Visible Light 11h 02m
Length of Day
10h 08m
Waxing Crescent, 20% of the Moon is Illuminated
Jan 15
Waxing Crescent
Jan 18
First Quarter
Jan 26
Full
Feb 3
Last Quarter
Feb 9
New

Hourly Weather History & Observations

Time (PST) Temp. Windchill Dew Point Humidity Pressure Visibility Wind Dir Wind Speed Gust Speed Precip Events Conditions
12:53 AM 37.9 °F 34.4 °F 12.0 °F 35% 30.32 in 10.0 mi West 4.6 mph - N/A   Clear
1:53 AM 37.0 °F - 10.9 °F 34% 30.35 in 10.0 mi Calm Calm - N/A   Clear
2:53 AM 35.1 °F - 15.1 °F 44% 30.36 in 10.0 mi Calm Calm - N/A   Clear
3:53 AM 34.0 °F - 14.0 °F 44% 30.35 in 10.0 mi Calm Calm - N/A   Clear
4:53 AM 34.0 °F - 14.0 °F 44% 30.35 in 10.0 mi Calm Calm - N/A   Clear
5:53 AM 34.0 °F 31.0 °F 14.0 °F 44% 30.36 in 10.0 mi NNW 3.5 mph - N/A   Clear
6:53 AM 34.0 °F - 14.0 °F 44% 30.38 in 10.0 mi Calm Calm - N/A   Clear
7:53 AM 37.9 °F - 14.0 °F 38% 30.40 in 10.0 mi Calm Calm - N/A   Clear
8:53 AM 44.1 °F - 14.0 °F 30% 30.42 in 10.0 mi Calm Calm - N/A   Clear
9:53 AM 50.0 °F - 12.9 °F 23% 30.43 in 10.0 mi Calm Calm - N/A   Clear
10:53 AM 52.0 °F - 9.0 °F 18% 30.40 in 10.0 mi Calm Calm - N/A   Clear
11:53 AM 54.0 °F - 8.1 °F 16% 30.35 in 10.0 mi South 5.8 mph - N/A   Clear
12:53 PM 57.0 °F - 10.9 °F 16% 30.33 in 10.0 mi Variable 4.6 mph - N/A   Clear
1:53 PM 57.0 °F - 10.9 °F 16% 30.31 in 10.0 mi SSW 5.8 mph - N/A   Clear
2:53 PM 57.9 °F - 14.0 °F 18% 30.30 in 10.0 mi South 4.6 mph - N/A   Clear
3:53 PM 55.9 °F - 16.0 °F 21% 30.31 in 10.0 mi South 8.1 mph - N/A   Clear
4:53 PM 54.0 °F - 19.0 °F 25% 30.32 in 10.0 mi South 5.8 mph - N/A   Clear
5:53 PM 50.0 °F - 28.0 °F 43% 30.33 in 10.0 mi South 4.6 mph - N/A   Clear
6:53 PM 48.9 °F - 30.0 °F 48% 30.35 in 10.0 mi Calm Calm - N/A   Clear
7:53 PM 46.9 °F - 19.0 °F 33% 30.35 in 10.0 mi WSW 4.6 mph - N/A   Clear
8:53 PM 45.0 °F - 21.0 °F 39% 30.34 in 10.0 mi Calm Calm - N/A   Clear
9:53 PM 44.1 °F - 21.0 °F 40% 30.34 in 10.0 mi Calm Calm - N/A   Clear
10:53 PM 42.1 °F - 23.0 °F 47% 30.33 in 10.0 mi Calm Calm - N/A   Clear
11:53 PM 42.1 °F - 21.9 °F 45% 30.34 in 10.0 mi Calm Calm - N/A   Clear